Weather History for Worcester, MA

Change the Weather History Date:

Saturday, August 17, 2013

  Actual Average Record
Temperature  
Mean Temperature 68 °F 69 °F  
Max Temperature 77 °F 77 °F 97 °F (1944)
Min Temperature 58 °F 61 °F 44 °F (1929)
Degree Days  
Heating Degree Days 0 1  
Month to date heating degree days 9 8  
Since 1 June heating degree days 83 105  
Since 1 July heating degree days 16 22  
Cooling Degree Days 3 5  
Month to date cooling degree days 37 91  
Year to date cooling degree days 462 372  
Since 1 June cooling degree days 438 350  
Growing Degree Days 16 (Base 50)    
Moisture  
Dew Point 54 °F    
Average Humidity 64    
Maximum Humidity 86    
Minimum Humidity 41    
Precipitation  
Precipitation 0.00 in 0.12 in 1.60 in (1939)
Month to date precipitation 2.86 2.18  
Year to date precipitation 32.70 29.83  
Sea Level Pressure  
Sea Level Pressure 30.27 in    
Wind  
Wind Speed 6 mph (West)    
Max Wind Speed 12 mph    
Max Gust Speed 13 mph    
Visibility 10 miles    
Events      
T = Trace of Precipitation, MM = Missing Value Source: NWS Daily Summary

Daily Weather History Graph

Daily Weather History Graph

Search for Another Location

Airport:

Trip Planner

Search our weather history database for the weather conditions in past years. The results will help you decide how hot, cold, wet, or windy it might be!

Date:

Astronomy

Aug. 17, 2013 Rise Set
Actual Time 5:57 AM EDT 7:45 PM EDT
Civil Twilight 5:27 AM EDT 8:14 PM EDT
Nautical Twilight 4:50 AM EDT 8:51 PM EDT
Astronomical Twilight 4:11 AM EDT 9:30 PM EDT
Moon 4:59 PM EDT (8/17) 1:55 AM EDT (8/17)
Length of Visible Light 14h 47m
Length of Day
13h 47m
Waxing Gibbous, 84% of the Moon is Illuminated
Aug 17
Waxing Gibbous
Aug 20
Full
Aug 28
Last Quarter
Sep 5
New
Sep 12
First Quarter

Hourly Weather History & Observations

Time (EDT) Temp. Dew Point Humidity Pressure Visibility Wind Dir Wind Speed Gust Speed Precip Events Conditions
12:54 AM 60.1 °F 54.0 °F 80% 30.24 in 10.0 mi West 6.9 mph - N/A   Clear
1:54 AM 61.0 °F 54.0 °F 78% 30.24 in 10.0 mi West 9.2 mph - N/A   Clear
2:54 AM 60.1 °F 53.1 °F 78% 30.24 in 10.0 mi West 8.1 mph - N/A   Clear
3:54 AM 59.0 °F 53.1 °F 81% 30.24 in 10.0 mi WNW 10.4 mph - N/A   Clear
4:54 AM 59.0 °F 54.0 °F 83% 30.24 in 10.0 mi WNW 11.5 mph - N/A   Clear
5:54 AM 57.9 °F 54.0 °F 87% 30.25 in 10.0 mi NW 8.1 mph - N/A   Clear
6:54 AM 60.1 °F 52.0 °F 75% 30.27 in 10.0 mi WNW 4.6 mph - N/A   Clear
7:54 AM 66.0 °F 52.0 °F 60% 30.27 in 10.0 mi North 6.9 mph - N/A   Clear
8:54 AM 68.0 °F 55.0 °F 63% 30.28 in 10.0 mi NE 4.6 mph - N/A   Clear
9:54 AM 69.1 °F 55.9 °F 63% 30.29 in 10.0 mi East 5.8 mph - N/A   Clear
10:54 AM 71.1 °F 55.9 °F 59% 30.30 in 10.0 mi Variable 3.5 mph - N/A   Clear
11:54 AM 73.0 °F 55.0 °F 53% 30.30 in 10.0 mi NNE 5.8 mph - N/A   Partly Cloudy
12:54 PM 73.9 °F 52.0 °F 46% 30.29 in 10.0 mi ENE 4.6 mph - N/A   Partly Cloudy
1:54 PM 75.0 °F 54.0 °F 48% 30.28 in 10.0 mi Calm Calm - N/A   Clear
2:54 PM 75.9 °F 50.0 °F 40% 30.28 in 10.0 mi WNW 3.5 mph - N/A   Partly Cloudy
3:54 PM 75.9 °F 52.0 °F 43% 30.26 in 10.0 mi SW 5.8 mph - N/A   Clear
4:54 PM 75.9 °F 52.0 °F 43% 30.26 in 10.0 mi West 3.5 mph - N/A   Scattered Clouds
5:54 PM 75.0 °F 54.0 °F 48% 30.27 in 10.0 mi SSW 3.5 mph - N/A   Mostly Cloudy
6:54 PM 73.9 °F 55.9 °F 53% 30.27 in 10.0 mi Calm Calm - N/A   Clear
7:54 PM 71.1 °F 59.0 °F 66% 30.27 in 10.0 mi South 4.6 mph - N/A   Partly Cloudy
8:54 PM 70.0 °F 57.0 °F 63% 30.28 in 10.0 mi SSW 3.5 mph - N/A   Clear
9:54 PM 66.9 °F 57.0 °F 70% 30.29 in 10.0 mi South 6.9 mph - N/A   Clear
10:54 PM 64.9 °F 57.9 °F 78% 30.30 in 10.0 mi SSW 6.9 mph - N/A   Clear
11:54 PM 64.0 °F 57.9 °F 80% 30.30 in 10.0 mi SW 8.1 mph - N/A   Clear